Flag for Germany Weather past 2 weeks in Erlangen, Bavaria, Germany

Now
59 °F

Light rain. Partly sunny.


Feels Like: 59 °F
Forecast: 57 / 69 °F
Wind: 5 mph from Southeast

Location: Nuernberg

Current Time: May 3, 2015 at 3:54:43 PM

Latest Report: May 3, 2015 at 3:20 PM


Visibility: 4 mi

Pressure: 29.77 "Hg

Humidity: 94%

Dew point: 57 °F

Location of ErlangenLocation

Historic Weather in Erlangen — Graph

°F

Erlangen temperature yesterday

Maximum temperature yesterday: 57 °F (at 4:50 PM)
Minimum temperature yesterday: 45 °F (at 3:50 AM)
Average temperature yesterday: 50 °F

Past Weeks' High & Low Weather Summary

 TemperatureHumidityPressure
High72 °F (Apr 27, 2:50 PM)100% (Apr 26, 4:50 AM)30.39 "Hg (Apr 26, 4:50 AM)
Low28 °F (Apr 19, 4:50 AM)21% (Apr 21, 5:20 PM)29.53 "Hg (Apr 27, 3:20 PM)
Average51 °F66%29.99 "Hg
* Reported Apr 18 2:20 PM — May 3 2:20 PM, Erlangen, Weather by CustomWeather, © 2015

Note: Actual official high and low records may vary slightly from our data, if they occured in-between our weather recording intervals... More about our weather records

Advertising

Erlangen weather history for previous 24 hours

 ConditionsComfort  
Time TempWeatherWind HumidityBarometerVisibility
2:20 PM
Sun, May 3
59 °FDrizzle. Partly sunny.8 mph88%29.77 "Hg5 mi
1:50 PM59 °FPartly sunny.8 mph88%29.77 "Hg6 mi
1:20 PM57 °FPartly sunny.8 mph88%29.77 "HgN/A
12:50 PM57 °FPartly sunny.7 mph88%29.77 "HgN/A
12:20 PM55 °FPartly sunny.7 mph94%29.77 "HgN/A
11:50 AM55 °FPartly sunny.5 mph88%29.77 "HgN/A
11:20 AM55 °FPartly sunny.8 mph88%29.77 "HgN/A
10:50 AM55 °FPartly sunny.8 mph88%29.77 "HgN/A
10:20 AM54 °FPartly sunny.8 mph94%29.77 "HgN/A
9:50 AM54 °FCloudy.9 mph94%29.77 "HgN/A
9:20 AM54 °FBroken clouds.8 mph94%29.77 "Hg5 mi
8:50 AM52 °FLight rain. Fog.7 mph100%29.80 "Hg3 mi
8:20 AM52 °FLight rain. Fog.6 mph94%29.80 "Hg2 mi
7:50 AM50 °FLight rain. Mostly cloudy.7 mph100%29.80 "Hg4 mi
7:20 AM50 °FLight rain. Partly sunny.7 mph100%29.80 "Hg4 mi
6:50 AM50 °FLight rain. Partly sunny.6 mph94%29.80 "Hg4 mi
6:20 AM48 °FLight rain. Mostly cloudy.6 mph100%29.80 "Hg4 mi
5:50 AM48 °FLight rain. Passing clouds.6 mph94%29.77 "Hg4 mi
5:20 AM48 °FLight rain. Passing clouds.6 mph94%29.80 "Hg4 mi
4:20 AM48 °FLight rain. Passing clouds.6 mph94%29.80 "Hg6 mi
3:50 AM48 °FLight rain. Passing clouds.7 mph94%29.80 "HgN/A
3:20 AM46 °FLight rain. Passing clouds.7 mph93%29.80 "HgN/A
2:50 AM48 °FLight rain. Passing clouds.7 mph87%29.83 "HgN/A
2:20 AM46 °FPassing clouds.6 mph93%29.83 "HgN/A
1:50 AM46 °FPartly cloudy.6 mph93%29.83 "HgN/A
1:20 AM45 °FPartly cloudy.6 mph93%29.86 "HgN/A
12:50 AM45 °FPartly cloudy.6 mph93%29.86 "HgN/A
12:20 AM46 °FPartly cloudy.6 mph87%29.86 "HgN/A
11:50 PM
Sat, May 2
46 °FClear.5 mph87%29.89 "Hg10 mi
11:20 PM46 °FClear.5 mph93%29.89 "Hg10 mi
10:50 PM46 °FClear.5 mph93%29.89 "Hg10 mi
10:20 PM48 °FClear.2 mph87%29.89 "Hg10 mi
9:50 PM48 °FClear.2 mph82%29.89 "Hg10 mi
9:20 PM50 °FSunny.2 mph82%29.89 "Hg10 mi
8:50 PM50 °FSunny.3 mph82%29.89 "Hg10 mi
8:20 PM54 °FPassing clouds.3 mph72%29.89 "HgN/A
7:50 PM55 °FSunny.2 mph67%29.89 "Hg10 mi
7:20 PM55 °FPartly sunny.3 mph67%29.89 "HgN/A
6:50 PM55 °FBroken clouds.5 mph67%29.89 "HgN/A
6:20 PM55 °FBroken clouds.5 mph67%29.89 "HgN/A
5:50 PM55 °FBroken clouds.6 mph63%29.89 "HgN/A
5:20 PM55 °FBroken clouds.7 mph63%29.89 "HgN/A
4:50 PM57 °FBroken clouds.6 mph59%29.89 "HgN/A
4:20 PM55 °FBroken clouds.6 mph63%29.89 "HgN/A
3:50 PM55 °FBroken clouds.5 mph63%29.89 "HgN/A
3:20 PM55 °FRefreshingly cool.3 mph59%29.89 "HgN/A
Weather by CustomWeather, © 2015

See weather overviewHow to use our weather pages